Погода в Савинском

Россия / Ярославская область     57°56′27″N   39°22′11″E
темп.,
°C
ветер,
м/с
пор.,
м/с
влажн.,
%
обл.,
%
осадки,
мм/ч
давл.,
гПа
погр.,
м
9 марта, вт
вт900:00−17ссз359887 0.0 1010102
03:00−20ссз369974 0.0 1012110
06:00−22ссз2310071 0.0 101469
09:00−21ссз359682 0.1 1016246
12:00−18сз349092 0.0 1017414
15:00−17сз469196 0.1 1018516
18:00−18ссз3795100 0.1 1020271
21:00−22ссз389795 0.1 1022172
10 марта, ср
ср1000:00−25с239841 0.0 102374
03:00−27ссз239820 0.0 102571
06:00−28с23970 0.0 102667
09:00−25с25940 0.0 1028202
12:00−18ссз24830 0.0 1028384
15:00−17зсз34884 0.0 1028341
18:00−21зсз23939 0.0 102862
21:00−21зсз239637 0.0 102941
11 марта, чт
чт1100:00−20зсз2310097 0.0 103034
03:00−22зсз2310081 0.1 103122
06:00−23зсз2310011 0.0 103127
09:00−19зсз249619 0.0 1031174
12:00−13зсз249114 0.0 1031270
15:00−11зсз248935 0.0 1030386
18:00−13зюз239571 0.0 102940
21:00−17юз239642 0.0 102933
12 марта, пт
пт1200:00−18юз23950 0.0 102972
03:00−19ююз36930 0.0 1028115
06:00−20ююз38890 0.0 1027173
09:00−16ююз49800 0.0 1027281
12:00−10ю48730 0.0 1026446
15:00−8ю59770 0.0 1024644
18:00−10ю411860 0.0 1022414
21:00−12ю514870 0.0 1022456
13 марта, сб
сб1300:00−13ю413860 0.0 1021463
03:00−12ю5148425 0.0 1019593
06:00−11ю51484100 0.0 1018668
09:00−10ю61286100 0.0 1017727
12:00−7ю61088100 0.1 1016873
15:00−6ю61092100 0.5 1015857
18:00−5ю41092100 0.4 1014621
21:00−6ю4994100 0.6 1013380